www.pogodaiklimat.ru

Погода и климат >> Архив погоды >> Норвегия >> Аэропорт Харстад/Нарвик


ПОГОДА в Аэропорту Харстад/Нарвик

  • Прогноз погоды в Аэропорту Харстад/Нарвик
  • Монитор погоды в Аэропорту Харстад/Нарвик

АРХИВ ПОГОДЫ в Аэропорту Харстад/Нарвик

Время (UTC), дата Ветер
(напр.,м/с)
 
Видим.   Явления Облачность Т
(С)
Тd
(С)
f
(%)
Тe
(С)
Тes
(С)
Комфортность P
(гПа)
Po
(гПа)
Тmin
(С)
Tmax
(С)
R
(мм)
R24
(мм)
S
(см)
13 14.07 СЗ 5
{8}
н/о н/о +13.4 +7.0 65 +12 +12 1015.3 1012.2
14 14.07 СЗ 5
{9}
н/о н/о +13.5 +8.2 70 +12 +12 1015.2 1012.1
15 14.07 СЗ 5
{9}
н/о н/о +13.0 +7.7 70 +11 +11 1015.0 1011.9
16 14.07 С 6
{9}
н/о н/о +13.4 +8.1 70 +11 +11 1014.9 1011.8
17 14.07 С 5
{9}
н/о н/о +11.8 +7.1 73 +9 +9 1014.9 1011.7
18 14.07 С 6
{9}
н/о н/о +11.1 +6.3 72 +8 +8 1014.7 1011.6 +10.1 +14.4
19 14.07 С 6
{9}
н/о н/о +10.6 +6.0 73 +7 +7 1014.6 1011.4
20 14.07 С 5
{8}
н/о н/о +10.2 +5.8 74 +7 +7 1014.5 1011.4
21 14.07 С 5
{7}
н/о н/о +9.9 +5.3 73 +7 +7 1014.5 1011.3
22 14.07 С 5
{8}
н/о н/о +9.7 +5.9 77 +7 +7 1014.3 1011.2
23 14.07 С 4
{7}
н/о н/о +9.4 +5.6 77 +7 +7 1014.3 1011.2
00 15.07 С 4
{9}
н/о н/о +9.4 +6.0 79 +7 +7 1014.2 1011.0
01 15.07 С 4
{6}
н/о н/о +9.4 +5.8 78 +7 +7 1014.1 1010.9
02 15.07 С 5
{7}
н/о н/о +9.5 +6.4 81 +6 +6 1013.9 1010.8
03 15.07 С 4
{7}
н/о н/о +9.7 +6.8 82 +7 +7 1014.1 1010.9
04 15.07 С 5
{7}
н/о н/о +9.9 +6.8 81 +7 +7 1014.0 1010.8
05 15.07 С 5
{7}
н/о н/о +10.2 +6.9 80 +7 +7 1013.9 1010.7
06 15.07 С 5
{7}
н/о н/о +11.0 +6.9 76 +8 +8 1013.8 1010.7 +9.3 +11.1
07 15.07 С 5
{8}
н/о н/о +11.5 +7.0 74 +9 +9 1013.8 1010.6
08 15.07 С 5
{9}
н/о н/о +11.7 +6.6 71 +9 +9 1013.9 1010.7
09 15.07 С 5
{8}
н/о н/о +12.3 +7.2 71 +10 +10 1014.0 1010.9
10 15.07 С 6
{9}
н/о н/о +13.7 +7.0 64 +12 +12 1013.9 1010.8
11 15.07 С 6
{10}
н/о н/о +13.9 +7.2 64 +12 +12 1013.8 1010.7
12 15.07 С 7
{10}
н/о н/о +13.5 +6.6 63 +11 +11 1014.0 1010.9
13 15.07 СЗ 6
{10}
н/о н/о +12.0 +6.7 70 +9 +9 1014.3 1011.2
14 15.07 С 5
{9}
н/о н/о +13.2 +7.0 66 +11 +11 1014.5 1011.3
15 15.07 С 6
{9}
н/о н/о +13.2 +6.3 63 +11 +11 1014.3 1011.2
16 15.07 С 6
{9}
н/о н/о +12.9 +6.5 65 +11 +11 1014.4 1011.3
17 15.07 С 5
{9}
н/о н/о +11.9 +6.0 67 +10 +10 1014.6 1011.5
18 15.07 С 5
{10}
н/о н/о +11.2 +6.2 71 +9 +9 1014.8 1011.7 +11.0 +14.2
19 15.07 С 5
{8}
н/о н/о +10.5 +5.9 73 +8 +8 1015.0 1011.9
20 15.07 С 5
{7}
н/о н/о +9.7 +5.7 76 +7 +7 1015.2 1012.1
21 15.07 С 4
{6}
н/о н/о +9.4 +5.4 76 +7 +7 1015.5 1012.4
22 15.07 С 5
{8}
н/о н/о +8.5 +5.6 82 +5 +5 1015.8 1012.7
23 15.07 С 5
{7}
н/о н/о +7.8 +5.4 85 +4 +4 1016.0 1012.8
00 16.07 С 4
{8}
н/о н/о +8.2 +5.7 84 +5 +5 1015.9 1012.7
01 16.07 С 5
{7}
н/о н/о +8.7 +5.5 80 +5 +5 1016.0 1012.8
02 16.07 С 5
{7}
н/о н/о +8.5 +5.4 81 +5 +5 1016.2 1013.0
03 16.07 С 5
{8}
н/о н/о +8.9 +5.7 80 +5 +5 1016.3 1013.2
04 16.07 С 4
{7}
н/о н/о +9.1 +5.5 78 +6 +6 1016.4 1013.2
05 16.07 С 4
{7}
н/о н/о +9.4 +5.4 76 +7 +7 1016.6 1013.4
06 16.07 СЗ 3
{8}
н/о н/о +10.2 +5.8 74 +8 +8 1016.5 1013.3 +7.7 +11.2
07 16.07 С 4
{6}
н/о н/о +11.1 +6.1 71 +9 +9 1016.5 1013.3
08 16.07 С 4
{6}
н/о н/о +11.0 +5.6 69 +9 +9 1016.6 1013.4
09 16.07 С 4
{8}
н/о н/о +11.3 +5.6 68 +9 +9 1016.6 1013.4
10 16.07 С 5
{8}
н/о н/о +11.5 +6.4 71 +9 +9 1016.7 1013.6
11 16.07 С 4
{8}
н/о н/о +11.7 +6.0 68 +10 +10 1016.8 1013.6
12 16.07 С 4
{8}
н/о н/о +11.3 +5.8 69 +9 +9 1016.8 1013.7
13 16.07 С 4
{6}
н/о н/о +11.6 +6.3 70 +10 +10 1016.8 1013.6
14 16.07 С 4
{7}
н/о н/о +11.2 +5.1 66 +9 +9 1017.0 1013.8
15 16.07 С 4
{7}
н/о н/о +11.2 +5.7 69 +9 +9 1017.1 1014.0
16 16.07 С 4
{6}
н/о н/о +11.0 +5.8 70 +9 +9 1017.1 1013.9
17 16.07 С 4
{5}
н/о н/о +10.6 +5.4 70 +8 +8 1017.1 1013.9
18 16.07 С 4
{7}
н/о н/о +10.2 +5.6 73 +8 +8 1017.1 1013.9 +10.2 +12.4
19 16.07 С 3
{5}
н/о н/о +9.9 +5.9 76 +8 +8 1017.1 1013.9
20 16.07 С 4
{5}
н/о н/о +9.6 +6.0 78 +7 +7 1017.0 1013.8
21 16.07 С 3
{5}
н/о н/о +9.4 +6.1 80 +7 +7 1017.0 1013.8
22 16.07 С 4
{5}
н/о н/о +9.0 +5.9 81 +6 +6 1017.1 1013.9
23 16.07 С 3
{5}
н/о н/о +8.9 +6.0 82 +6 +6 1016.9 1013.7
00 17.07 С 3
{5}
н/о н/о +8.4 +6.0 85 +6 +6 1016.9 1013.7
01 17.07 С 4
{5}
н/о н/о +8.8 +6.3 84 +6 +6 1016.8 1013.6
02 17.07 С 3
{5}
н/о н/о +9.2 +6.5 83 +7 +7 1016.7 1013.5
03 17.07 С 3
{5}
н/о н/о +8.9 +6.4 84 +6 +6 1016.4 1013.2
04 17.07 С 3
{5}
н/о н/о +9.7 +6.8 82 +7 +7 1016.2 1013.0
05 17.07 С 3
{4}
н/о н/о +10.3 +7.2 81 +8 +8 1016.0 1012.9
06 17.07 СЗ 4
{6}
н/о н/о +10.8 +7.9 82 +8 +8 1015.7 1012.5 +8.4 +11.8
07 17.07 СЗ 4
{6}
н/о н/о +10.9 +7.8 81 +8 +8 1015.6 1012.4
08 17.07 С 4
{7}
н/о н/о +11.3 +7.8 79 +9 +9 1015.5 1012.3
09 17.07 СЗ 5
{7}
н/о н/о +13.0 +8.1 72 +11 +11 1015.1 1012.0
10 17.07 СЗ 5
{9}
н/о н/о +13.1 +7.6 69 +11 +11 1015.0 1011.8
11 17.07 СЗ 5
{9}
н/о н/о +12.7 +7.8 72 +11 +11 1015.0 1011.9
12 17.07 С 5
{9}
н/о н/о +12.1 +7.6 74 +10 +10 1014.8 1011.7
13 17.07 С 5
{8}
н/о н/о +12.1 +7.2 72 +10 +10 1014.8 1011.7
14 17.07 С 5
{8}
н/о н/о +12.6 +6.9 68 +10 +10 1014.6 1011.5
15 17.07 С 5
{8}
н/о н/о +12.6 +7.3 70 +10 +10 1014.4 1011.3
16 17.07 С 6
{8}
н/о н/о +12.7 +6.3 65 +10 +10 1014.3 1011.2
17 17.07 С 5
{8}
н/о н/о +12.2 +6.5 68 +10 +10 1014.2 1011.1
18 17.07 С 5
{8}
н/о н/о +11.8 +6.1 68 +9 +9 1014.2 1011.1 +10.5 +13.8
19 17.07 С 5
{8}
н/о н/о +10.5 +5.7 72 +8 +8 1014.3 1011.1
20 17.07 С 4
{7}
н/о н/о +8.7 +5.3 79 +6 +6 1014.2 1011.0
21 17.07 С 4
{6}
н/о н/о +8.9 +5.5 79 +6 +6 1014.1 1010.9
22 17.07 С 4
{6}
н/о н/о +9.2 +5.6 78 +6 +6 1014.2 1011.0
23 17.07 С 4
{6}
н/о н/о +9.0 +5.6 79 +6 +6 1014.2 1011.1
00 18.07 С 3
{8}
н/о н/о +8.5 +5.3 80 +6 +6 1014.2 1011.0
01 18.07 С 4
{5}
н/о н/о +8.1 +5.2 82 +5 +5 1014.2 1011.0
02 18.07 С 3
{5}
н/о н/о +8.0 +5.1 82 +5 +5 1014.1 1011.0
03 18.07 С 3
{4}
н/о н/о +8.8 +5.2 78 +6 +6 1014.1 1010.9
04 18.07 С 3
{4}
н/о н/о +9.6 +5.6 76 +7 +7 1014.0 1010.8
05 18.07 С 3
{5}
н/о н/о +11.0 +6.4 73 +9 +9 1013.8 1010.7
06 18.07 С 4
{6}
н/о н/о +12.0 +7.1 72 +10 +10 1013.8 1010.6 +7.8 +12.0
07 18.07 СЗ 4
{6}
н/о н/о +12.6 +7.5 71 +11 +11 1013.6 1010.5
08 18.07 СЗ 5
{7}
н/о н/о +13.8 +8.0 68 +12 +12 1013.4 1010.3
09 18.07 СЗ 5
{7}
н/о н/о +14.1 +8.1 67 +12 +12 1013.3 1010.2
10 18.07 СЗ 5
{8}
н/о н/о +15.8 +9.5 66 +15 +15 1013.1 1010.0
11 18.07 СЗ 5
{8}
н/о н/о +16.3 +9.5 64 +15 +15 1013.0 1009.9
12 18.07 СЗ 5
{8}
н/о н/о +16.8 +9.5 62 +16 +16 1012.7 1009.6
13 18.07 СЗ 6
{8}
н/о н/о +16.9 +9.3 61 +16 +16 1012.5 1009.5
14 18.07 СЗ 5
{8}
н/о н/о +16.9 +9.3 61 +16 +16 1012.4 1009.3
15 18.07 СЗ 5
{8}
н/о н/о +16.8 +9.0 60 +16 +16 1012.3 1009.2
16 18.07 СЗ 5
{8}
н/о н/о +16.5 +9.5 63 +16 +16 1012.4 1009.3
17 18.07 СЗ 5
{9}
н/о н/о +15.5 +9.0 65 +14 +14 1012.4 1009.3
18 18.07 СЗ 5
{9}
н/о н/о +14.8 +9.0 68 +13 +13 1012.4 1009.3 +11.9 +17.3
19 18.07 С 4
{7}
н/о н/о +14.1 +8.7 70 +13 +13 1012.5 1009.4
20 18.07 С 3
{6}
н/о н/о +13.0 +8.3 73 +12 +12 1012.5 1009.4
21 18.07
{5}
н/о н/о +12.4 +8.5 77 1012.6 1009.5
22 18.07 С 3
{5}
н/о н/о +10.8 +8.4 85 +9 +9 1012.6 1009.5
23 18.07 СЗ 3
{6}
н/о н/о +9.7 +8.1 90 +7 +7 1012.8 1009.6
00 19.07 СЗ 2
{7}
н/о н/о +10.0 +8.1 88 +8 +8 1012.8 1009.6
01 19.07 Ю 2
{3}
н/о н/о +10.2 +9.0 92 +9 +9 1012.7 1009.5
02 19.07 Ю 3
{6}
н/о н/о +11.5 +8.4 81 +10 +10 1012.6 1009.4
03 19.07 ЮВ 4
{6}
н/о н/о +14.2 +8.0 66 +13 +13 1012.4 1009.3
04 19.07 ЮВ 3
{6}
н/о н/о +16.1 +8.1 59 +16 +16 1012.2 1009.1
05 19.07 ЮВ 2
{7}
н/о н/о +18.2 +9.0 55 +19 +19 1012.0 1008.9
06 19.07 ЮВ 4
{7}
н/о н/о +19.1 +7.5 47 +20 +20 1011.7 1008.6 +9.2 +19.3
07 19.07 В 5
{7}
н/о н/о +19.8 +7.5 45 +21 +21 комфорт 1011.4 1008.4
08 19.07 ЮВ 4
{8}
н/о н/о +20.6 +7.3 42 +22 +22 комфорт 1011.2 1008.1
09 19.07 ЮВ 4
{7}
н/о н/о +21.4 +6.5 38 +22 +22 комфорт 1010.9 1007.8
10 19.07 ЮВ 4
{9}
н/о н/о +22.3 +7.3 38 +23 +23 комфорт 1010.7 1007.7
11 19.07 ЮВ 4
{6}
н/о н/о +22.7 +7.3 37 +24 +24 комфорт 1010.6 1007.6
12 19.07 Ю 3
{9}
н/о н/о +23.2 +6.9 35 +24 +24 комфорт 1010.4 1007.4
13 19.07 В 3
{6}
н/о н/о +23.6 +7.3 35 +24 +24 комфорт 1010.1 1007.2
14 19.07 В 3
{5}
н/о н/о +23.8 +7.0 34 +24 +24 комфорт 1010.0 1007.0
15 19.07 С 3
{6}
н/о н/о +23.8 +9.4 40 +25 +25 комфорт 1010.0 1007.0
17 19.07 С 3
{5}
н/о н/о +23.1 +9.9 43 +25 +25 комфорт 1009.8 1006.8
18 19.07 СЗ 2
{6}
н/о н/о +22.0 +10.2 47 +24 +24 комфорт 1010.0 1006.9 +19.1 +24.3
19 19.07 С 2
{3}
н/о н/о +20.2 +10.0 52 +22 +22 комфорт 1010.2 1007.1
20 19.07 С 2
{3}
н/о н/о +18.3 +9.4 56 +19 +19 1010.4 1007.3
21 19.07 С 1
{3}
н/о н/о +15.7 +9.4 66 +16 +16 1010.6 1007.5
22 19.07 СЗ 1
{2}
н/о н/о +13.3 +10.1 81 +13 +13 1010.9 1007.8
23 19.07 С 1
{2}
н/о н/о +11.5 +9.9 90 +11 +11 1011.1 1008.0
00 20.07 Ю 1
{3}
н/о н/о +11.4 +10.3 93 +11 +11 1011.2 1008.0
01 20.07 Ю 2
{3}
н/о н/о +12.6 +10.2 85 +12 +12 1011.3 1008.2
02 20.07 штиль 0
{4}
н/о н/о +13.1 +10.1 82 +13 +13 1011.2 1008.1
03 20.07 Ю 2
{3}
н/о н/о +15.1 +11.3 78 +15 +15 1011.5 1008.4
04 20.07 Ю 3
{6}
н/о н/о +15.8 +11.6 76 +15 +15 1011.8 1008.7
05 20.07 Ю 3
{4}
н/о н/о +16.6 +11.3 71 +16 +16 1011.8 1008.7
06 20.07 Ю 3
{6}
н/о н/о +17.4 +11.4 68 +17 +17 1012.0 1009.0 +10.8 +22.1
07 20.07 Ю 3
{4}
н/о н/о +18.2 +11.5 65 +19 +19 1012.5 1009.4
08 20.07 ЮВ 4
{7}
н/о н/о +18.8 +13.2 70 +20 +20 1012.7 1009.7
09 20.07 ЮВ 4
{7}
н/о н/о +18.3 +12.7 70 +19 +19 1013.0 1009.9
10 20.07 ЮВ 2
{6}
н/о н/о +17.8 +13.5 76 +18 +18 1013.3 1010.2
11 20.07 СВ 1
{3}
н/о н/о +19.7 +13.2 66 +22 +22 комфорт 1013.5 1010.4
12 20.07 СЗ 3
{7}
н/о н/о +20.8 +13.8 64 +24 +24 комфорт 1013.6 1010.5
13 20.07 С 2
{4}
н/о н/о +22.6 +13.9 58 +26 +26 жарко 1013.2 1010.2
14 20.07 СЗ 3
{4}
н/о н/о +22.9 +13.1 54 +26 +26 жарко 1013.1 1010.1
15 20.07 ЮВ 2
{5}
н/о н/о +21.7 +13.4 59 +24 +24 комфорт 1013.1 1010.1
16 20.07 СВ 2
{5}
н/о н/о +19.1 +12.6 66 +21 +21 комфорт 1013.2 1010.2
17 20.07 ЮЗ 3
{6}
н/о н/о +17.9 +12.1 69 +18 +18 1013.7 1010.6
18 20.07
{6}
н/о н/о +16.6 +13.1 80 1013.4 1010.4 +16.5 +23.7
19 20.07 С 3
{5}
н/о н/о +16.0 +12.9 82 +16 +16 1013.3 1010.3
20 20.07 С 3
{6}
н/о н/о +15.8 +12.4 80 +15 +15 1013.7 1010.6
21 20.07
{6}
н/о н/о +14.2 +11.5 84 1013.7 1010.6
22 20.07 С 2
{5}
н/о н/о +13.0 +11.4 90 +12 +12 1013.5 1010.4
23 20.07
{4}
н/о н/о +13.3 +11.7 90 1013.5 1010.3
00 21.07 С 3
{6}
н/о н/о +12.4 +11.1 92 +11 +11 1013.4 1010.3
01 21.07 С 3
{4}
н/о н/о +12.1 +10.8 92 +10 +10 1013.0 1009.8
02 21.07 С 2
{4}
н/о н/о +12.3 +11.0 92 +11 +11 1012.7 1009.6
03 21.07 С 1
{3}
н/о н/о +12.5 +10.7 89 +12 +12 1012.6 1009.5
04 21.07 С 2
{3}
н/о н/о +14.1 +11.4 84 +14 +14 1012.4 1009.3
05 21.07 С 1
{2}
н/о н/о +15.7 +11.7 77 +16 +16 1012.1 1009.0
06 21.07 Ю 1
{4}
н/о н/о +18.5 +12.7 69 +20 +20 1011.7 1008.6 +11.7 +18.8
07 21.07 З 1
{2}
н/о н/о +19.8 +13.7 68 +23 +23 комфорт 1011.3 1008.3
08 21.07 Ю 2
{4}
н/о н/о +20.9 +13.8 64 +24 +24 комфорт 1011.1 1008.1
09 21.07 Ю 3
{4}
н/о н/о +22.1 +14.0 60 +25 +25 комфорт 1010.8 1007.8
10 21.07 ЮЗ 2
{4}
н/о н/о +23.4 +14.1 56 +27 +27 душно 1010.7 1007.7
11 21.07 Ю 3
{5}
н/о н/о +24.6 +10.9 42 +26 +26 жарко 1010.7 1007.7
12 21.07 Ю 3
{7}
н/о н/о +24.7 +12.0 45 +26 +26 жарко 1010.8 1007.8

 

Местоположение метеостанции Аэропорт Харстад/Нарвик (Норвегия): широта 68.49 долгота 16.68 высота над уровнем моря 26 м.

В архиве по умолчанию представлена погода в Аэропорту Харстад/Нарвик за последнюю неделю. Архивные данные за месяц целиком и за предыдущие месяцы, начиная с января 2011 года, Вы можете получить, выбрав интересующий диапазон дат из раскрывающегося списка и нажав кнопку "Ввод!".


*Определитесь, кто Вы:
робот инопланетянин человек

Внимание! Время в таблицах - всемирное. Для получения местного времени необходимо прибавить поправку, которая равна 1 ч.

Смотрите также архив погоды в соседних городах и на ближайших метеорологических станциях:

Погода в Нарвике (Норвегия) (30 км)
Погода на Маяке Rotvaer (Норвегия) (33 км)
Погода в Харстаде (Норвегия) (35 км)
Погода в Страумснесе (Норвегия) (41 км)
Погода в Драге (Норвегия) (55 км)
Погода в Сортланне (Норвегия) (56 км)
Погода в Лосистуа (Норвегия) (56 км)
Погода в Каттерьяк аэропорту (Швеция) (61 км)
Погода в Каттерьяке (Швеция) (61 км)
Погода в Стокмаркнес аэропорту (Норвегия) (68 км)

Пояснения к столбцам:

Ветер - указаны скорость ветра в м/с - средняя за 10 мин, порывы в срок и между сроками (в фигурных скобках) и направление, откуда дует ветер: С - северный, СВ - северо-восточный, В - восточный, ЮВ - юго-восточный, Ю - южный, ЮЗ - юго-западный, З - западный, СЗ - северо-западный.
Видимость - горизонтальная дальность видимости в метрах или километрах. При видимости от 1 до 10 км при отсутствии осадков обычно наблюдается дымка, при ухудшении видимости до 1 км и менее - туман. В сухую погоду видимость может ухудшаться дымом, пылью или мглою.
Явления - указаны атмосферные явления, наблюдавшиеся в срок или в последний час перед сроком; фигурными скобками обозначены явления, наблюдавшиеся между сроками (за 1-3 часа до срока); квадратными скобками обозначены град или гололедные отложения с указанием их диаметра в мм.
Облачность - указаны через наклонную черту общая и нижняя облачность в баллах и высота нижней границы облаков в метрах; квадратными скобками обозначены формы облаков: Ci - перистые, Cs - перисто-слоистые, Cc - перисто-кучевые, Ac - высококучевые, As - высокослоистые, Sc - слоисто-кучевые, Ns - слоисто-дождевые, Cu - кучевые, Cb - кучево-дождевые. Подробнее классификацию облаков см. в Атласе облаков (PDF).
T - Температура воздуха - температура, измеренная на высоте 2 м над землей.
Td - Температура точки росы - температура, при понижении до которой содержащийся в воздухе водяной пар достигнет насыщения.
f - Относительная влажность воздуха - влажноcть воздуха, измеренная на высоте 2 м над землей.
Te - Эффективная температура - температура, которую ощущает одетый по сезону человек в тени. Характеристика душности погоды. При расчете учитывается влияние влажности воздуха и скорости ветра на теплоощущения человека.
Tes - Эффективная температура на солнце - температура, которую ощущает человек, с поправкой на солнечный нагрев. Характеристика знойности погоды. Зависит от высоты солнца над горизонтом, облачности и скорости ветра. Ночью, в пасмурную погоду, а также при ветре 12 м/с и более поправка равна нулю.
P - Атмосферное давление - приведенное к уровню моря атмосферное давление.
Po - Атмосферное давление - измеренное на уровне метеостанции атмосферное давление.
Tmin - Минимальная температура - минимум температуры воздуха на высоте 2 м над землей.
Tmax - Максимальная температура - максимум температуры воздуха на высоте 2 м над землей.
R - Количество осадков - Количество выпавших осадков за период времени, мм. При наведении курсора мыши на число - период времени, за который выпало указанное количество осадков.
R24 - Количество осадков - Количество выпавших осадков за 24 часа, мм.
S - Снежный покров - Высота снежного покрова, см. При наведении курсора мыши на число - состояние снежного покрова и степень покрытия местности в баллах.